Els Cortals - Les Guilleries





Hora UTC 07:05
Temperatura 2.8 ºC
Humitat 92.0 %
Pressió 1011.9 hPa
Pluja 0.0 mm
Velocitat vent 0.0 km/h
Direcció vent WNW

Dades diàries 2022-12-01



Hora UTC (hivern +1h; estiu +2h)
Temperatura (ºC) Humitat (%) Pressió (hPa) Velocitat vent (km/h) Precipitació (mm)
Hora UTC Aire Humitat Pressió Vel. Dir. Vel. Max Dir. Intent. màx 5 min.
00:05 4.4 91.0 1012.6 0.0 WSW 0.0 0.0
00:10 4.3 91.0 1012.5 0.0 WSW 0.0 0.0
00:15 4.3 91.0 1012.4 0.0 WSW 0.0 0.0
00:20 4.3 91.0 1012.4 0.0 WSW 0.0 0.0
00:25 4.3 91.0 1012.4 0.0 WSW 0.0 0.0
00:30 4.3 92.0 1012.3 0.0 WSW 3.2 0.0
00:35 4.4 92.0 1012.3 0.0 WSW 3.2 0.0
00:40 4.4 92.0 1012.3 0.0 WSW 4.8 0.0
00:40 4.5 92.0 1012.3 0.0 WSW 6.4 0.0
00:50 4.4 92.0 1012.3 0.0 WSW 9.7 0.0
00:55 4.4 92.0 1012.2 0.0 WSW 9.7 0.0
01:00 4.4 92.0 1012.2 0.0 WSW 3.2 0.0
01:05 4.4 92.0 1012.1 0.0 W 9.7 0.0
01:10 4.4 92.0 1012.1 3.2 W 9.7 0.0
01:15 4.4 92.0 1012.0 0.0 W 9.7 0.0
01:20 4.4 92.0 1012.0 3.2 W 9.7 0.0
01:20 4.4 92.0 1012.0 3.2 WSW 9.7 0.0
01:25 4.5 92.0 1011.9 8.0 WSW 9.7 0.0
01:30 4.6 92.0 1012.0 0.0 W 11.3 0.0
01:35 4.4 92.0 1012.1 0.0 W 3.2 0.0
01:40 4.3 91.0 1012.0 0.0 W 1.6 0.0
01:45 4.1 91.0 1012.0 0.0 W 0.0 0.0
01:50 3.8 91.0 1012.0 0.0 W 0.0 0.0
01:55 3.7 91.0 1012.0 0.0 W 1.6 0.0
02:05 3.6 91.0 1011.9 0.0 W 3.2 0.0
02:10 3.4 91.0 1011.8 0.0 W 3.2 0.0
02:15 3.3 91.0 1011.8 0.0 W 0.0 0.0
02:20 3.1 91.0 1011.7 0.0 W 0.0 0.0
02:25 2.9 91.0 1011.8 0.0 W 0.0 0.0
02:30 2.7 91.0 1011.8 0.0 W 1.6 0.0
02:35 2.6 91.0 1011.8 0.0 W 1.6 0.0
02:40 2.5 91.0 1011.7 1.6 W 1.6 0.0
02:45 2.4 92.0 1011.7 0.0 W 3.2 0.0
02:50 2.4 92.0 1011.7 0.0 W 3.2 0.0
02:55 2.4 92.0 1011.6 1.6 W 3.2 0.0
03:00 2.4 92.0 1011.6 0.0 W 3.2 0.0
03:05 2.3 92.0 1011.6 0.0 W 1.6 0.0
03:10 2.3 92.0 1011.7 0.0 W 3.2 0.0
03:15 2.2 92.0 1011.6 0.0 W 3.2 0.0
03:20 2.2 92.0 1011.5 0.0 W 0.0 0.0
03:25 2.2 92.0 1011.5 0.0 W 0.0 0.0
03:30 2.1 92.0 1011.4 1.6 W 3.2 0.0
03:35 2.1 92.0 1011.5 0.0 W 3.2 0.0
03:40 2.3 92.0 1011.5 0.0 W 1.6 0.0
03:45 2.4 92.0 1011.4 0.0 W 0.0 0.0
03:50 2.4 92.0 1011.4 0.0 W 0.0 0.0
03:55 2.6 92.0 1011.4 0.0 W 0.0 0.0
04:00 2.7 92.0 1011.4 0.0 W 0.0 0.0
04:05 2.7 92.0 1011.5 0.0 W 0.0 0.0
04:10 2.8 92.0 1011.5 1.6 NW 11.3 0.0
04:15 2.9 92.0 1011.4 1.6 NW 11.3 0.0
04:20 2.9 92.0 1011.3 1.6 WNW 8.0 0.0
04:25 2.9 92.0 1011.4 0.0 NW 9.7 0.0
04:30 3.0 92.0 1011.5 0.0 WSW 11.3 0.0
04:35 2.9 92.0 1011.4 0.0 WNW 12.9 0.0
04:40 2.9 92.0 1011.4 0.0 WNW 12.9 0.0
04:45 2.8 92.0 1011.4 0.0 WNW 0.0 0.0
04:50 2.7 92.0 1011.5 0.0 WNW 0.0 0.0
04:55 2.6 92.0 1011.5 0.0 WNW 0.0 0.0
05:00 2.4 92.0 1011.6 0.0 WNW 0.0 0.0
05:05 2.3 92.0 1011.5 0.0 WNW 0.0 0.0
05:10 2.3 92.0 1011.4 0.0 WNW 0.0 0.0
05:15 2.4 92.0 1011.5 0.0 WNW 0.0 0.0
05:20 2.4 92.0 1011.6 0.0 WNW 0.0 0.0
05:25 2.5 92.0 1011.5 0.0 WNW 0.0 0.0
05:30 2.6 92.0 1011.5 0.0 WNW 0.0 0.0
05:35 2.7 92.0 1011.6 0.0 WNW 0.0 0.0
05:40 2.7 92.0 1011.8 0.0 WNW 0.0 0.0
05:45 2.8 92.0 1011.7 0.0 WNW 0.0 0.0
05:50 2.9 92.0 1011.8 0.0 WNW 0.0 0.0
05:55 3.0 92.0 1011.8 0.0 WNW 0.0 0.0
06:00 3.0 92.0 1011.8 0.0 WNW 0.0 0.0
06:05 3.0 92.0 1011.8 3.2 NNW 8.0 0.0
06:10 3.0 92.0 1011.9 0.0 WNW 9.7 0.0
06:15 2.9 92.0 1011.9 0.0 WNW 6.4 0.0
06:20 2.9 92.0 1011.9 1.6 WSW 4.8 0.0
06:25 2.9 92.0 1011.8 0.0 WSW 6.4 0.0
06:30 2.9 92.0 1011.9 3.2 W 3.2 0.0
06:35 2.9 92.0 1011.9 0.0 W 4.8 0.0
06:40 2.9 92.0 1011.9 0.0 W 6.4 0.0
06:45 2.9 92.0 1011.8 0.0 W 1.6 0.0
06:50 2.9 92.0 1011.9 0.0 W 3.2 0.0
06:55 2.9 92.0 1011.8 0.0 W 6.4 0.0
07:00 2.8 92.0 1011.9 0.0 N 9.7 0.0
07:05 2.8 92.0 1011.9 0.0 WNW 9.7 0.0
Màxima 4.9 92.0 1012.6 8.0 WSW 12.9 0.0
Mínima 2.1 91.0 1011.3
Total 0.0